SCOUT B R/B, 2206

Orbit data source: Space-Track

SCOUT B R/B, 2206 is space debris in LEO originally from a launch on Fri, 10 Jun 1966 UTC launched from the Wallops Island (WLPIS). Debris objects in space refer to the collection of defunct objects orbiting the Earth. Examples of debris include non-operational satellites, rocket bodies, and fragments generated from explosions, collisions, or faulty payload assembly.

Loading next visibility...
Identifier
2206, 1966-052B
Orbit
LEO
Country
Flag of USUS
Related business
Manufacturer
UTC
Mission
Spacecraft
Bus & Motor
FW4, Unknown motor
Mass
47 kg wet, 47 kg dry
Launch date (UTC)
1966-06-10 (59 years ago)
Launch vehicle
Unknown
Launch site
Wallops Island (WLPIS)
Object type
Payload
Rocket body
Debris
Shape & HBR
Cyl, 0.8 m
Radar Cross Section
0.687 m², Medium (>0.1 m² and < 1m²)

Expand to show TLE details & history
Last TLE update: 18 hours ago

TLE from 18 hours ago
0 SCOUT B R/B
1 02206U 66052B   25260.23919756  .00000376  00000-0  55354-3 0  9997
2 02206  40.8777 356.8210 2211007 262.0873  72.5093 10.14405851175065
Epoch: 2025-09-17T05:44Z
TLE epoch observation values (Epoch: 2025-09-17T05:44:26.669Z)
Latitude
-0.00002°
Longitude
-85.70814°
Altitude
2,466.503 km
Speed
6.778 km/s
True Right ascension
23h 47m 17s
True Declination
0° 00' 00"
Sunlit
Object was in full shadow at epoch
Visualization orbit readout
Latitude
Unknown
Longitude
Unknown
Altitude
Unknown
Speed
Unknown
Apparent Right ascension
Unknown
Apparent Declination
Unknown
Sunlit
N/A
Visualization observer readout
Local Sidereal Time
17:00:52
Azimuth
Unknown
Elevation
Unknown
Doppler factor
Unknown
Orbital elements
Apogee altitude
4,631.42 km
Perigee altitude
644.491 km
Semi-major axis
9,016.092 km
Eccentricity
0.2211
Inclination
40.8777°
RAAN
356.821°
Arg. of periapsis
262.0873°
True anomaly
97.98078°
Mean anomaly
72.5093°
Eccentric anomaly
85.13174°
Mean motion
2.53522 °/min
Orbital period
142 mins
BSTAR
0.00055354
Loading maneuver chart data...
Computing Atmospheric mass density...
Loading historical data...
Loading historical data...
Loading historical data...
Loading historical data...
Loading historical data...
Loading historical data...
Loading historical data...
Other satellites on launch #52 in the year 1966 (1966-06-10 UTC)

Documentation

Showing up to 5 results
|